Regional Weather Roundup
Issued by NWS

Home | Current Version | Previous Version | Text Only | Print | Product List | Glossary Off
Versions: 1 2 3 4 5 6 7 8 9 10 11 12 13 14 15 16 17 18 19 20 21 22 23 24 25 26 27 28 29 30 31 32 33 34 35 36 37 38 39 40 41 42 43 44 45 46 47 48 49 50

000
ASUS43 KBIS 260402
RWRND

NORTH DAKOTA REGIONAL WEATHER ROUNDUP
NATIONAL WEATHER SERVICE BISMARCK ND
1100 PM CDT THU AUG 25 2016

NOTE: "FAIR" INDICATES FEW OR NO CLOUDS BELOW 12,000 FEET WITH NO
SIGNIFICANT WEATHER AND/OR OBSTRUCTIONS TO VISIBILITY.


NDZ001>003-009>011-017-260500-
NORTHWEST NORTH DAKOTA

CITY           SKY/WX    TMP DP  RH WIND       PRES   REMARKS
WILLISTON      CLOUDY    60  40  47 W5        30.09S
MINOT          CLEAR     57  42  57 S5        30.06S
MINOT AFB      CLEAR     54  39  57 S8        30.05S
$$

NDZ018>021-031>035-040>046-260500-
SOUTHWEST NORTH DAKOTA

CITY           SKY/WX    TMP DP  RH WIND       PRES   REMARKS
BISMARCK       CLEAR     54  47  77 CALM      30.13R
DICKINSON      CLEAR     52  40  63 SW5       30.13S
GARRISON         N/A     51  44  77 CALM      30.09S
HETTINGER ARPT CLEAR     51  40  65 CALM      30.18S
$$

NDZ004>008-012>016-024-026-027-054-260500-
NORTHEAST NORTH DAKOTA

CITY           SKY/WX    TMP DP  RH WIND       PRES   REMARKS
GRAND FORKS    CLEAR     52  49  89 SW7       30.04S
GRND FRKS AFB  CLEAR     53  50  90 W5        30.05S
DEVILS LAKE    CLEAR     55  50  83 CALM      30.07S
$$

NDZ022-023-025-028>030-036>039-047>053-260500-
SOUTHEAST NORTH DAKOTA

CITY           SKY/WX    TMP DP  RH WIND       PRES   REMARKS
FARGO          MOCLDY    58  50  75 SW7       30.08R
JAMESTOWN      CLEAR     56  50  80 SW7       30.10R
$$





USA.gov is the U.S. government's official web portal to all federal, state and local government web resources and services.